Change the Weather History Date:

Friday, July 5, 2013

  Actual Average Record
Temperature  
Mean Temperature 80 °F 76 °F  
Max Temperature 96 °F 91 °F 102 °F (1966)
Min Temperature 63 °F 62 °F 50 °F (1995)
Degree Days  
Heating Degree Days 0 0  
Month to date heating degree days 0 0  
Since 1 June heating degree days 0 12  
Since 1 July heating degree days 0 0  
Cooling Degree Days 15 12  
Month to date cooling degree days 41 56  
Year to date cooling degree days 602 368  
Since 1 June cooling degree days 448 296  
Growing Degree Days 30 (Base 50)    
Moisture  
Dew Point 48 °F    
Average Humidity 40    
Maximum Humidity 60    
Minimum Humidity 20    
Precipitation  
Precipitation 0.00 in 0.07 in 2.33 in (1958)
Month to date precipitation T 0.40  
Year to date precipitation 1.93 8.11  
Snow  
Snow 0.00 in 0.00 in 0.00 in ()
Month to date snowfall 0.0 0.0  
Since 1 June snowfall 0.0 0.0  
Since 1 July snowfall 0.0 0.0  
Snow Depth 0.00 in    
Sea Level Pressure  
Sea Level Pressure 29.74 in    
Wind  
Wind Speed 20 mph (South)    
Max Wind Speed 31 mph    
Max Gust Speed 40 mph    
Visibility 10 miles    
Events      
T = Trace of Precipitation, MM = Missing Value Source: NWS Daily Summary

Daily Weather History Graph

Daily Weather History Graph

Search for Another Location

Airport or City:

Trip Planner

Search our weather history database for the weather conditions in past years. The results will help you decide how hot, cold, wet, or windy it might be!

Date:

Astronomy

Jul. 05, 2013 Rise Set
Actual Time 6:39 AM CDT 9:10 PM CDT
Civil Twilight 6:09 AM CDT 9:40 PM CDT
Nautical Twilight 5:31 AM CDT 10:17 PM CDT
Astronomical Twilight 4:50 AM CDT 10:58 PM CDT
Moon 4:38 AM CDT (7/5) 7:08 PM CDT (7/5)
Length of Visible Light 15h 31m
Length of Day
14h 31m
Waning Crescent, 6% of the Moon is Illuminated
Jul 5
Waning Crescent
Jul 8
New
Jul 15
First Quarter
Jul 22
Full
Jul 29
Last Quarter

Hourly Weather History & Observations

Time (CDT) Temp. Dew Point Humidity Pressure Visibility Wind Dir Wind Speed Gust Speed Precip Events Conditions
12:53 AM 73.0 °F 46.9 °F 39% 29.82 in 10.0 mi South 11.5 mph - N/A   Clear
1:53 AM 70.0 °F 46.9 °F 44% 29.82 in 10.0 mi South 11.5 mph - N/A   Partly Cloudy
2:53 AM 69.1 °F 48.0 °F 47% 29.81 in 10.0 mi South 11.5 mph - N/A   Clear
3:53 AM 69.1 °F 48.0 °F 47% 29.80 in 10.0 mi South 12.7 mph - N/A   Clear
4:53 AM 66.9 °F 48.9 °F 52% 29.79 in 10.0 mi South 9.2 mph - N/A   Clear
5:53 AM 63.0 °F 48.9 °F 60% 29.80 in 10.0 mi South 9.2 mph - N/A   Clear
6:53 AM 64.0 °F 50.0 °F 60% 29.80 in 10.0 mi South 10.4 mph - N/A   Clear
7:53 AM 66.9 °F 52.0 °F 59% 29.80 in 10.0 mi South 11.5 mph - N/A   Clear
8:53 AM 75.9 °F 50.0 °F 40% 29.79 in 10.0 mi South 20.7 mph - N/A   Clear
9:53 AM 81.0 °F 50.0 °F 34% 29.78 in 10.0 mi SSW 26.5 mph 31.1 mph N/A   Clear
10:53 AM 84.0 °F 48.9 °F 29% 29.78 in 10.0 mi SSW 27.6 mph 35.7 mph N/A   Clear
11:53 AM 88.0 °F 48.9 °F 26% 29.76 in 10.0 mi SSW 28.8 mph 34.5 mph N/A   Clear
12:53 PM 91.0 °F 48.0 °F 23% 29.75 in 10.0 mi SSW 27.6 mph 34.5 mph N/A   Clear
1:53 PM 91.9 °F 46.9 °F 21% 29.73 in 10.0 mi SSW 25.3 mph 32.2 mph N/A   Clear
2:53 PM 93.9 °F 48.0 °F 21% 29.71 in 8.0 mi South 25.3 mph 34.5 mph N/A   Clear
3:53 PM 95.0 °F 48.0 °F 20% 29.69 in 8.0 mi South 23.0 mph 38.0 mph N/A   Clear
4:53 PM 96.1 °F 48.9 °F 20% 29.66 in 8.0 mi South 26.5 mph 38.0 mph N/A   Clear
5:53 PM 91.9 °F 48.0 °F 22% 29.67 in 10.0 mi South 23.0 mph 29.9 mph N/A   Clear
6:53 PM 93.9 °F 48.0 °F 21% 29.64 in 9.0 mi South 25.3 mph 34.5 mph N/A   Clear
7:53 PM 91.0 °F 46.9 °F 22% 29.65 in 9.0 mi South 24.2 mph 35.7 mph N/A   Clear
8:53 PM 88.0 °F 46.9 °F 24% 29.67 in 8.0 mi South 24.2 mph 32.2 mph N/A   Clear
9:53 PM 86.0 °F 46.0 °F 25% 29.68 in 10.0 mi South 17.3 mph - N/A   Clear
10:53 PM 84.9 °F 48.9 °F 29% 29.70 in 10.0 mi South 21.9 mph 26.5 mph N/A   Clear
11:53 PM 82.0 °F 48.0 °F 30% 29.72 in 10.0 mi South 18.4 mph - N/A   Clear